Back to catalog

STARLINK-3052

AliveCommunicationsVLEO
NORAD 49165·PAYLOAD·🇺🇸 United States

Launched Sep 14, 2021 from Vandenberg Space Force Base

Loading…

Next Passes (next 24 hours)

TLE

FreshSource: CelesTrak SupGP

Epoch: Sep 14, 2026, 14:19 UTC

1 49165C 21082AM  26257.59701389  .00637480  00000+0  49326-1 0  2571
2 49165  70.0004 178.1541 0003068 270.1074  69.2084 15.01072155    10

Track STARLINK-3052 in real time with AllMySat

Download on the App Store